Tracking 29088 objects as of 13-Jul-2024
HD Live streaming from Space Station
objects crossing your sky now

STARLINK-32127

Track STARLINK-32127 now!
10-day predictions
STARLINK-32127 is classified as:


NORAD ID: 60146
Int'l Code: 2024-120M
Perigee: 331.6 km
Apogee: 333.3 km
Inclination: 53.1 °
Period: 91.0 minutes
Semi major axis: 6703 km
RCS: Unknown
Launch date: June 27, 2024
Source: United States (US)
Launch site: AIR FORCE EASTERN TEST RANGE (AFETR)
Your satellite tracking list
Your tracking list is empty




NASA's NSSDC Master Catalog

Two Line Element Set (TLE):
1 60146U 24120M   24194.91667824 -.00954423  00000-0 -51641-2 0  9997
2 60146  53.1480 262.7228 0001294  90.6012 155.0811 15.81803321  3469
Source of the keplerian elements: AFSPC